sat.trackr.live / text

‹ back to catalog

KUIPER-00105

NORAD 65143 · 2025-171M

PAYLOAD ACTIVE UNKNOWN

§ Identity

Operator
Country
US
Launch date
2025-08-11
Launch site
AFETR
Launch vehicle
Mass (kg)
RCS (m²)

External: N2YO · Heavens-Above · Gunter

§ Orbital elements

Epoch: 2026-05-24T12:07:33.904128Z

Period
97.29 min
Inclination
51.9012°
Eccentricity
0.0000406
Mean motion
14.80042817 rev/d
Perigee alt
628.9 km
Apogee alt
629.5 km
Semi-major
7,007.3 km
B*
2.5682e-3
RAAN
190.3971°
Arg perigee
56.8270°
Mean anomaly
303.2731°
Rev number
4,401

§ Raw data

KUIPER-001051 65143U 25171M   26144.50525352  .00019465  00000+0  25682-2 0  99982 65143  51.9012 190.3971 0000406  56.8270 303.2731 14.80042817 44010

JSON: /api/v1/satellites/65143 · /tle

For live sub-satellite position, see the globe view (requires WebGL).

§ Visibility from observer

Set your observer location to see the next 7 days of passes ≥ 10°. The values pass through the URL so the page stays shareable.

No JS? Fill the form by hand. The geolocation button needs JavaScript.